| time (UTC) | temp C | wind direction | speed KPH | gust KPH | rain 1hr cm | rain 24hr cm | rain mn cm | humidity % | barometer mb |
| 20260506034611 | 9 | 23 | 0.0 | 0.0 | 0.00 | 0.00 | 0.00 | 51 | 1039.9 |
| 20260506033108 | 10 | 0 | 1.6 | 3.2 | 0.00 | 0.00 | 0.00 | 50 | 1039.6 |
| 20260506031605 | 10 | 6 | 0.0 | 3.2 | 0.00 | 0.00 | 0.00 | 49 | 1039.4 |
| 20260506030103 | 10 | 105 | 0.0 | 1.6 | 0.00 | 0.00 | 0.00 | 50 | 1039.2 |
| 20260506024559 | 10 | 0 | 0.0 | 3.2 | 0.00 | 0.00 | 0.00 | 50 | 1039.4 |
| 20260506023055 | 10 | 279 | 0.0 | 1.6 | 0.00 | 0.00 | 0.00 | 50 | 1039.0 |
| 20260506021552 | 10 | 326 | 0.0 | 3.2 | 0.00 | 0.00 | 0.00 | 49 | 1038.9 |
| 20260506020050 | 10 | 240 | 0.0 | 1.6 | 0.00 | 0.00 | 0.00 | 53 | 1038.6 |
| 20260506014548 | 10 | 246 | 0.0 | 0.0 | 0.00 | 0.00 | 0.00 | 50 | 1038.5 |
| 20260506013044 | 10 | 246 | 0.0 | 0.0 | 0.00 | 0.00 | 0.00 | 49 | 1038.3 |
| 20260506011540 | 11 | 180 | 0.0 | 0.0 | 0.00 | 0.00 | 0.00 | 47 | 1038.1 |
| 20260506010038 | 11 | 255 | 0.0 | 3.2 | 0.00 | 0.00 | 0.00 | 46 | 1037.7 |
| 20260506004534 | 11 | 243 | 0.0 | 4.8 | 0.00 | 0.00 | 0.00 | 44 | 1037.8 |
| 20260506003029 | 12 | 265 | 3.2 | 4.8 | 0.00 | 0.00 | 0.00 | 43 | 1037.3 |
| 20260506001524 | 12 | 310 | 4.8 | 4.8 | 0.00 | 0.00 | 0.00 | 42 | 1037.5 |
| 20260506000022 | 12 | 279 | 6.4 | 12.9 | 0.00 | 0.00 | 0.00 | 40 | 1037.5 |
| 20260505234519 | 12 | 257 | 1.6 | 11.3 | 0.00 | 0.00 | 0.00 | 38 | 1037.5 |
| 20260505233017 | 12 | 259 | 4.8 | 19.3 | 0.00 | 0.00 | 0.00 | 39 | 1037.6 |
| 20260505231514 | 12 | 254 | 3.2 | 6.4 | 0.00 | 0.00 | 0.00 | 40 | 1037.4 |
| 20260505230012 | 12 | 262 | 3.2 | 9.7 | 0.00 | 0.00 | 0.00 | 40 | 1037.4 |
| 20260505224508 | 13 | 263 | 6.4 | 11.3 | 0.00 | 0.00 | 0.00 | 39 | 1037.7 |
| 20260505223004 | 13 | 280 | 3.2 | 8.0 | 0.00 | 0.00 | 0.00 | 40 | 1037.7 |
| 20260505221459 | 12 | 273 | 4.8 | 9.7 | 0.00 | 0.00 | 0.00 | 39 | 1037.6 |
| 20260505215956 | 12 | 270 | 8.0 | 9.7 | 0.00 | 0.00 | 0.00 | 38 | 1037.8 |
| 20260505214455 | 13 | 278 | 8.0 | 19.3 | 0.00 | 0.00 | 0.00 | 39 | 1037.7 |
| 20260505212952 | 13 | 277 | 1.6 | 8.0 | 0.00 | 0.00 | 0.00 | 37 | 1037.8 |
| 20260505211449 | 13 | 267 | 4.8 | 12.9 | 0.00 | 0.00 | 0.00 | 38 | 1037.6 |
| 20260505205944 | 13 | 281 | 9.7 | 9.7 | 0.00 | 0.00 | 0.00 | 35 | 1037.9 |
| 20260505204443 | 13 | 225 | 4.8 | 14.5 | 0.00 | 0.00 | 0.00 | 36 | 1037.9 |
| 20260505202938 | 13 | 228 | 6.4 | 11.3 | 0.00 | 0.00 | 0.00 | 38 | 1038.0 |
| 20260505201434 | 13 | 225 | 0.0 | 12.9 | 0.00 | 0.00 | 0.00 | 36 | 1037.9 |
| 20260505195930 | 13 | 219 | 6.4 | 20.9 | 0.00 | 0.00 | 0.00 | 35 | 1037.8 |
| 20260505194428 | 13 | 254 | 11.3 | 17.7 | 0.00 | 0.00 | 0.00 | 33 | 1038.0 |
| 20260505192924 | 13 | 172 | 0.0 | 9.7 | 0.00 | 0.00 | 0.00 | 37 | 1038.1 |
| 20260505191424 | 13 | 253 | 11.3 | 20.9 | 0.00 | 0.00 | 0.00 | 35 | 1038.3 |
| 20260505185922 | 13 | 267 | 6.4 | 12.9 | 0.00 | 0.00 | 0.00 | 36 | 1038.5 |
| 20260505184419 | 13 | 270 | 8.0 | 9.7 | 0.00 | 0.00 | 0.00 | 39 | 1038.0 |
| 20260505182915 | 13 | 217 | 14.5 | 14.5 | 0.00 | 0.00 | 0.00 | 35 | 1038.0 |
| 20260505181412 | 13 | 278 | 11.3 | 19.3 | 0.00 | 0.00 | 0.00 | 37 | 1037.9 |
| 20260505175907 | 13 | 273 | 6.4 | 14.5 | 0.00 | 0.00 | 0.00 | 36 | 1037.8 |
| 20260505174404 | 13 | 253 | 6.4 | 14.5 | 0.00 | 0.00 | 0.00 | 37 | 1037.8 |
| 20260505172859 | 12 | 237 | 12.9 | 25.7 | 0.00 | 0.00 | 0.00 | 37 | 1037.9 |
| 20260505171359 | 11 | 256 | 8.0 | 17.7 | 0.00 | 0.00 | 0.00 | 39 | 1037.7 |
| 20260505165854 | 12 | 280 | 8.0 | 11.3 | 0.00 | 0.00 | 0.00 | 39 | 1038.1 |
| 20260505164354 | 11 | 288 | 8.0 | 16.1 | 0.00 | 0.00 | 0.00 | 41 | 1037.7 |
| 20260505162850 | 11 | 317 | 4.8 | 11.3 | 0.00 | 0.00 | 0.00 | 42 | 1037.7 |
| 20260505161345 | 11 | 218 | 3.2 | 14.5 | 0.00 | 0.00 | 0.00 | 42 | 1037.8 |
| 20260505152834 | 10 | 276 | 4.8 | 9.7 | 0.00 | 0.00 | 0.00 | 45 | 1037.9 |
| 20260505151334 | 10 | 246 | 9.7 | 11.3 | 0.00 | 0.00 | 0.00 | 43 | 1037.8 |
| 20260505124308 | 9 | 270 | 4.8 | 8.0 | 0.00 | 0.00 | 0.00 | 53 | 1037.5 |
| 20260505122808 | 8 | 270 | 4.8 | 4.8 | 0.00 | 0.00 | 0.00 | 55 | 1037.7 |
| 20260505121305 | 8 | 270 | 3.2 | 4.8 | 0.00 | 0.00 | 0.00 | 53 | 1037.4 |
| 20260505115802 | 8 | 185 | 1.6 | 6.4 | 0.00 | 0.00 | 0.00 | 53 | 1038.0 |
| 20260505114259 | 8 | 251 | 1.6 | 6.4 | 0.00 | 0.00 | 0.00 | 53 | 1037.1 |
| 20260505112800 | 8 | 223 | 6.4 | 8.0 | 0.00 | 0.00 | 0.00 | 52 | 1036.5 |
| 20260505111300 | 8 | 263 | 4.8 | 4.8 | 0.00 | 0.00 | 0.00 | 53 | 1035.9 |
| 20260505101246 | 9 | 311 | 4.8 | 9.7 | 0.00 | 0.00 | 0.00 | 52 | 1035.8 |
| 20260505095747 | 9 | 208 | 3.2 | 9.7 | 0.00 | 0.00 | 0.00 | 52 | 1035.2 |
| 20260505094243 | 10 | 245 | 3.2 | 6.4 | 0.00 | 0.00 | 0.00 | 53 | 1035.4 |
| 20260505092739 | 10 | 293 | 11.3 | 11.3 | 0.00 | 0.00 | 0.00 | 54 | 1035.1 |
| 20260505091239 | 10 | 313 | 8.0 | 16.1 | 0.00 | 0.00 | 0.00 | 55 | 1035.1 |
| 20260505085737 | 10 | 11 | 0.0 | 4.8 | 0.00 | 0.00 | 0.00 | 55 | 1035.0 |
| 20260505084237 | 10 | 294 | 6.4 | 12.9 | 0.00 | 0.00 | 0.00 | 54 | 1034.2 |
| 20260505082732 | 11 | 315 | 3.2 | 6.4 | 0.00 | 0.00 | 0.00 | 54 | 1033.7 |
| 20260505081229 | 11 | 48 | 0.0 | 8.0 | 0.00 | 0.00 | 0.00 | 53 | 1033.6 |
| 20260505075728 | 11 | 342 | 3.2 | 6.4 | 0.00 | 0.00 | 0.00 | 55 | 1032.9 |
| 20260505074226 | 12 | 286 | 1.6 | 4.8 | 0.00 | 0.00 | 0.00 | 53 | 1032.8 |
| 20260505072723 | 13 | 306 | 0.0 | 9.7 | 0.00 | 0.00 | 0.00 | 52 | 1032.9 |
| 20260505071218 | 13 | 321 | 3.2 | 8.0 | 0.00 | 0.00 | 0.00 | 50 | 1032.3 |
| 20260505065714 | 13 | 259 | 3.2 | 8.0 | 0.00 | 0.00 | 0.00 | 48 | 1032.2 |
| 20260505064212 | 14 | 66 | 0.0 | 4.8 | 0.00 | 0.00 | 0.00 | 47 | 1032.0 |
| 20260505062707 | 14 | 260 | 0.0 | 4.8 | 0.00 | 0.00 | 0.00 | 46 | 1032.1 |
| 20260505061206 | 15 | 301 | 3.2 | 17.7 | 0.00 | 0.00 | 0.00 | 43 | 1031.6 |
| 20260505055700 | 15 | 295 | 3.2 | 12.9 | 0.00 | 0.00 | 0.00 | 42 | 1031.6 |
| 20260505054158 | 15 | 340 | 0.0 | 6.4 | 0.00 | 0.00 | 0.00 | 43 | 1031.5 |
| 20260505052655 | 15 | 232 | 4.8 | 9.7 | 0.00 | 0.00 | 0.00 | 42 | 1031.2 |
| 20260505051153 | 15 | 248 | 4.8 | 11.3 | 0.00 | 0.00 | 0.00 | 42 | 1031.0 |
| 20260505041146 | 17 | 294 | 9.7 | 11.3 | 0.00 | 0.00 | 0.00 | 43 | 1030.5 |
| 20260505035642 | 17 | 292 | 6.4 | 14.5 | 0.00 | 0.00 | 0.00 | 43 | 1030.4 |